Tracking 19485 objects as of 21-Jan-2019
HD Live streaming from Space Station
objects crossing your sky now

IRIDIUM 28

Track IRIDIUM 28 now!
10-day predictions
IRIDIUM 28 is classified as:


NORAD ID: 24948
Int'l Code: 1997-051E
Perigee: 778.5 km
Apogee: 781.7 km
Inclination: 86.4 °
Period: 100.3 minutes
Semi major axis: 7151 km
RCS: 4.0828 m2 (large)
Launch date: September 14, 1997
Source: United States (US)
Launch site: TYURATAM MISSILE AND SPACE COMPLEX (TTMTR)
aabbcc
Your satellite tracking list
Your tracking list is empty




NASA's NSSDC Master Catalog

Two Line Element Set (TLE):
1 24948U 97051E   19019.64600389 +.00000082 +00000-0 +21720-4 0  9991
2 24948 086.3946 042.5717 0002224 100.2977 259.8470 14.35642339117933
Source of the keplerian elements: AFSPC